DW2649 Weather Reports


time (UTC)temp
C
wind
direction
speed
KPH
gust
KPH
rain 1hr
cm
rain 24hr
cm
rain mn
cm
humidity
%
barometer
mb
20260505121559 12 180 4.8 11.3 0.00 0.00 0.00 67 1008.6
20260505120059 12 179 4.8 11.3 0.00 0.00 0.00 68 1008.5
20260505114614 12 174 1.6 4.8 0.00 0.00 0.00 68 1008.4
20260505113058 12 197 1.6 9.7 0.00 0.00 0.00 67 1008.3
20260505111609 12 186 6.4 14.5 0.00 0.00 0.00 66 1008.3
20260505101559 13 161 8.0 16.1 0.00 0.00 0.00 62 1008.3
20260505100100 13 202 9.7 17.7 0.00 0.00 0.00 61 1008.4
20260505094600 13 149 6.4 12.9 0.00 0.00 0.00 62 1008.6
20260505093057 13 178 8.0 17.7 0.00 0.00 0.00 61 1008.6
20260505091558 13 171 8.0 19.3 0.00 0.00 0.00 61 1008.6
20260505090100 13 128 8.0 19.3 0.00 0.00 0.00 61 1008.7
20260505084600 13 184 8.0 19.3 0.00 0.00 0.00 60 1008.7
20260505083117 13 149 8.0 16.1 0.00 0.00 0.00 60 1008.6
20260505081559 13 169 9.7 17.7 0.00 0.00 0.00 60 1008.7
20260505080056 13 137 8.0 17.7 0.00 0.00 0.00 61 1009.0
20260505074558 13 127 6.4 17.7 0.00 0.00 0.00 62 1009.2
20260505073105 13 169 4.8 17.7 0.00 0.00 0.00 61 1009.2
20260505071557 13 150 9.7 17.7 0.00 0.00 0.00 63 1009.3
20260505070058 13 150 4.8 16.1 0.00 0.00 0.00 64 1009.5
20260505064603 14 144 6.4 16.1 0.00 0.00 0.00 62 1009.5
20260505063100 14 155 11.3 22.5 0.00 0.00 0.00 61 1009.5
20260505061611 14 182 11.3 25.7 0.00 0.00 0.00 61 1009.3
20260505054605 15 155 11.3 29.0 0.00 0.00 0.00 57 1008.8
20260505053112 14 161 6.4 11.3 0.00 0.00 0.00 55 1008.4
20260505051558 15 168 3.2 9.7 0.00 0.00 0.00 54 1008.2
20260505041614 16 148 11.3 22.5 0.00 0.00 0.00 49 1007.6
20260505034601 17 148 4.8 12.9 0.00 0.00 0.00 46 1007.2
20260505033100 17 163 6.4 16.1 0.00 0.00 0.00 44 1007.0
20260505031607 17 161 3.2 9.7 0.00 0.00 0.00 41 1006.6
20260505030100 18 173 1.6 8.0 0.00 0.00 0.00 38 1006.3
20260505024558 18 169 4.8 9.7 0.00 0.00 0.00 37 1006.2
20260505023103 19 160 4.8 11.3 0.00 0.00 0.00 36 1006.0
20260505021600 20 163 6.4 14.5 0.00 0.00 0.00 36 1006.1
20260505020059 21 215 6.4 16.1 0.00 0.00 0.00 34 1005.8
20260505014603 21 197 9.7 22.5 0.00 0.00 0.00 32 1005.8
20260505013101 22 165 11.3 20.9 0.00 0.00 0.00 30 1005.8
20260505011559 22 165 8.0 17.7 0.00 0.00 0.00 30 1005.9
20260505010058 22 229 8.0 19.3 0.00 0.00 0.00 29 1005.9
20260505004600 22 180 11.3 24.1 0.00 0.00 0.00 30 1006.1
20260505003101 22 163 8.0 25.7 0.00 0.00 0.00 31 1006.3
20260505001559 22 202 9.7 24.1 0.00 0.00 0.00 32 1006.4
20260505000109 23 200 12.9 27.4 0.00 0.00 0.00 29 1006.4
20260504234634 23 217 14.5 29.0 0.00 0.00 0.00 29 1006.5
20260504233104 23 225 11.3 24.1 0.00 0.00 0.00 28 1006.6
20260504231606 23 206 9.7 25.7 0.00 0.00 0.00 27 1006.6
20260504230100 23 208 12.9 30.6 0.00 0.00 0.00 27 1006.5
20260504224603 23 188 14.5 29.0 0.00 0.00 0.00 30 1006.6
20260504223100 23 207 14.5 37.0 0.00 0.00 0.00 30 1006.8
20260504221607 24 239 8.0 20.9 0.00 0.00 0.00 29 1006.7
20260504220059 24 234 6.4 22.5 0.00 0.00 0.00 25 1006.9
20260504214558 25 279 6.4 20.9 0.00 0.00 0.00 26 1007.0
20260504213058 25 300 8.0 19.3 0.00 0.00 0.00 26 1007.2
20260504211557 24 234 4.8 17.7 0.00 0.00 0.00 28 1007.5
20260504210110 24 199 9.7 17.7 0.00 0.00 0.00 25 1007.5
20260504204603 25 228 6.4 17.7 0.00 0.00 0.00 25 1007.7
20260504203058 24 316 6.4 16.1 0.00 0.00 0.00 26 1007.8
20260504201559 23 134 8.0 24.1 0.00 0.00 0.00 25 1008.0
20260504200101 23 269 4.8 19.3 0.00 0.00 0.00 28 1008.1
20260504194609 23 333 14.5 25.7 0.00 0.00 0.00 30 1008.2
20260504193102 23 281 6.4 20.9 0.00 0.00 0.00 33 1008.5
20260504191558 23 306 11.3 24.1 0.00 0.00 0.00 31 1008.6
20260504190128 23 323 9.7 25.7 0.00 0.00 0.00 33 1008.7
20260504184600 23 19 8.0 16.1 0.00 0.00 0.00 30 1008.7
20260504183057 23 225 3.2 11.3 0.00 0.00 0.00 31 1009.0
20260504181605 23 310 4.8 14.5 0.00 0.00 0.00 32 1009.2
20260504180208 23 182 4.8 16.1 0.00 0.00 0.00 32 1009.3
20260504174558 22 215 6.4 12.9 0.00 0.00 0.00 32 1009.5
20260504173125 22 178 3.2 12.9 0.00 0.00 0.00 33 1009.7
20260504171602 22 157 3.2 17.7 0.00 0.00 0.00 36 1009.7
20260504140115 16 167 6.4 12.9 0.00 0.00 0.00 47 1010.3